Location: Glasgow
(55.8642°N, 4.2518°W)
Time: 05:10:01
(UTC+00:00)

Amateur Radio Satellites - All Passes

Search period start: 18 December 2017 04:40
Search period end: 19 December 2017 04:40
Location: Glasgow, 55.8642°N, 4.2518°W

Satellite Date Start Highest point End Downlink Frequencies (MHz)
Time Altitude Azimuth
YUBILEINY 18 Dec 04:45:39 04:54:01 44° 298° (WNW) 05:02:27 435.215
AO-85 18 Dec 04:52:40 04:57:17 89° 223° (SW) 05:02:17 145.980
DOVE 4 18 Dec 04:56:58 05:01:16 40° 96° (E) 05:05:20 437.250
XW-2D 18 Dec 05:05:44 05:06:49 11° 84° (E) 05:07:53 145.860 - 145.880
Gurwin Techsat 1B 18 Dec 05:10:35 05:12:45 13° 320° (NW) 05:14:56 435.225
ITAMSAT 1 18 Dec 05:18:07 05:23:07 49° 297° (WNW) 05:28:06 435.822/435.867
HO-68 18 Dec 05:19:03 05:20:41 11° 75° (ENE) 05:22:20 435.675
FO-29 18 Dec 05:20:45 05:26:44 25° 45° (NE) 05:32:31 435.910
XW-2B 18 Dec 05:20:48 05:23:03 15° 87° (E) 05:25:16 145.730 - 145.750
XW-2F 18 Dec 05:29:22 05:31:54 17° 89° (E) 05:34:25 145.980 - 146.000
CUTE-I 18 Dec 05:30:47 05:34:34 19° 87° (E) 05:38:20 437.470
M-CUBED/EXP-1 PRIME 18 Dec 05:32:01 05:36:18 40° 304° (NW) 05:40:23 437.505
KKS-1 18 Dec 05:37:29 05:41:11 25° 267° (W) 05:44:56 437.445
XW-2C 18 Dec 05:47:44 05:51:01 26° 93° (E) 05:54:16 145.795 - 145.815
NO-84 18 Dec 05:50:38 05:52:01 12° 136° (SE) 05:53:26 435.350 FM
STRAND 1 18 Dec 05:59:01 06:03:57 51° 65° (ENE) 06:08:54 437.568
CUTE 1.7 + AOD 2 18 Dec 06:06:52 06:09:19 15° 86° (E) 06:11:45 437.475
STARS 18 Dec 06:09:46 06:13:31 27° 266° (W) 06:17:17 437.465
NUDT-PHONESAT 18 Dec 06:25:53 06:29:29 41° 98° (E) 06:33:04 437.300
AO-7 18 Dec 06:26:47 06:34:12 37° 316° (NW) 06:41:38 .
LilacSat-2 18 Dec 06:28:34 06:32:28 66° 102° (ESE) 06:36:20 437.200
AO-85 18 Dec 06:33:37 06:37:17 22° 242° (WSW) 06:41:09 145.980
DOVE 4 18 Dec 06:34:48 06:38:56 34° 298° (WNW) 06:42:51 437.250
KAITUO 1B 18 Dec 06:36:16 06:40:03 55° 101° (E) 06:43:47 145.475/437.950
XW-2D 18 Dec 06:37:47 06:41:41 78° 105° (ESE) 06:45:31 145.860 - 145.880
YUBILEINY 18 Dec 06:48:24 06:53:50 17° 327° (NNW) 06:59:17 435.215
XW-2B 18 Dec 06:53:51 06:57:43 77° 289° (WNW) 07:01:34 145.730 - 145.750
UNISAT 6 18 Dec 06:55:17 06:56:26 11° 47° (NE) 06:57:36 437.425
ITAMSAT 1 18 Dec 06:59:01 07:01:31 14° 318° (NW) 07:04:02 435.822/435.867
XW-2F 18 Dec 07:02:35 07:06:25 67° 289° (WNW) 07:10:13 145.980 - 146.000
FO-29 18 Dec 07:02:52 07:10:39 67° 66° (ENE) 07:18:12 435.910
HO-68 18 Dec 07:03:33 07:10:26 46° 98° (E) 07:17:15 435.675
M-CUBED/EXP-1 PRIME 18 Dec 07:07:54 07:09:35 12° 325° (NW) 07:11:15 437.505
CUTE-I 18 Dec 07:10:00 07:15:23 89° 280° (W) 07:20:43 437.470
SEEDS 18 Dec 07:11:13 07:15:06 33° 95° (E) 07:18:58 437.485
AAUSAT CUBESAT 2 18 Dec 07:18:57 07:22:07 20° 90° (E) 07:25:15 437.432
XW-2C 18 Dec 07:21:40 07:25:20 42° 293° (WNW) 07:28:59 145.795 - 145.815
UWE-3 18 Dec 07:24:06 07:27:50 28° 93° (E) 07:31:39 435.000/436.395/437.385
NO-84 18 Dec 07:25:31 07:28:32 44° 156° (SSE) 07:31:46 435.350 FM
CUBEBUG 2 18 Dec 07:32:11 07:36:21 50° 100° (E) 07:40:36 437.445
XW-2A 18 Dec 07:35:50 07:38:43 24° 94° (E) 07:41:34 145.665 - 145.685
STRAND 1 18 Dec 07:38:45 07:43:22 33° 265° (W) 07:47:59 437.568
ZACube-1 18 Dec 07:40:42 07:44:16 24° 92° (E) 07:47:52 437.345
CUTE 1.7 + AOD 2 18 Dec 07:41:27 07:45:48 90° 282° (WNW) 07:50:05 437.475
O/OREOS (USA 219) 18 Dec 07:53:35 07:57:47 36° 110° (ESE) 08:01:57 437.305
Oscar 11 18 Dec 07:53:59 07:57:14 20° 89° (E) 08:00:28 .
PRISM 18 Dec 07:59:21 08:01:30 14° 50° (NE) 08:03:38 437.425
NUDT-PHONESAT 18 Dec 08:00:01 08:03:11 26° 298° (WNW) 08:06:20 437.300
LilacSat-2 18 Dec 08:03:33 08:06:22 19° 302° (WNW) 08:09:09 437.200
KAITUO 1B 18 Dec 08:10:48 08:13:43 21° 301° (WNW) 08:16:38 145.475/437.950
AO-73 18 Dec 08:11:59 08:16:05 38° 97° (E) 08:20:15 145.935
XW-2D 18 Dec 08:12:52 08:15:22 17° 304° (NW) 08:17:52 145.860 - 145.880
AO-7 18 Dec 08:19:32 08:24:49 19° 341° (NNW) 08:30:07 .
TIGRISAT 18 Dec 08:23:53 08:27:54 44° 66° (ENE) 08:31:58 435.000
UNISAT 6 18 Dec 08:28:07 08:32:15 51° 68° (ENE) 08:36:24 437.425
XW-2B 18 Dec 08:29:22 08:31:16 13° 307° (NW) 08:33:09 145.730 - 145.750
XW-2F 18 Dec 08:38:21 08:39:49 12° 308° (NW) 08:41:17 145.980 - 146.000
SEEDS 18 Dec 08:46:53 08:50:51 38° 295° (WNW) 08:54:46 437.485
FO-29 18 Dec 08:48:44 08:56:03 40° 267° (W) 09:03:14 435.910
CUTE-I 18 Dec 08:50:46 08:54:50 23° 309° (NW) 08:58:53 437.470
HO-68 18 Dec 08:51:25 08:58:23 55° 300° (WNW) 09:05:18 435.675
YUBILEINY 18 Dec 08:53:43 08:55:47 11° 2° (N) 08:57:50 435.215
AAUSAT CUBESAT 2 18 Dec 08:53:49 08:57:57 61° 290° (WNW) 09:02:03 437.432
AIST 2D 18 Dec 08:55:35 08:57:20 13° 55° (NE) 08:59:05 435.315
UWE-3 18 Dec 09:00:22 09:04:29 47° 293° (WNW) 09:08:44 435.000/436.395/437.385
NO-84 18 Dec 09:02:19 09:05:35 79° 177° (S) 09:09:09 435.350 FM
XW-2A 18 Dec 09:08:19 09:11:30 36° 293° (WNW) 09:14:41 145.665 - 145.685
CUBEBUG 2 18 Dec 09:09:12 09:12:48 27° 299° (WNW) 09:16:27 437.445
QB50P2 18 Dec 09:11:28 09:13:11 12° 49° (NE) 09:14:55 145.880/145.840
ZACube-1 18 Dec 09:16:35 09:20:51 56° 291° (WNW) 09:25:12 437.345
CUTE 1.7 + AOD 2 18 Dec 09:18:14 09:21:04 17° 306° (NW) 09:23:53 437.475
DELFI C3 18 Dec 09:19:36 09:23:02 27° 94° (E) 09:26:25 145.870
Oscar 11 18 Dec 09:29:28 09:33:49 68° 289° (WNW) 09:38:09 .
PRISM 18 Dec 09:31:56 09:36:04 70° 70° (ENE) 09:40:13 437.425
O/OREOS (USA 219) 18 Dec 09:32:44 09:37:08 45° 311° (NW) 09:41:32 437.305
NANOSAT C BR1 18 Dec 09:37:55 09:40:29 16° 53° (NE) 09:43:04 145.865
AO-73 18 Dec 09:48:20 09:52:18 35° 296° (WNW) 09:56:20 145.935
EO-79 18 Dec 09:54:57 09:58:16 23° 58° (ENE) 10:01:34 145.935-145.965
TIGRISAT 18 Dec 10:01:05 10:04:47 29° 266° (W) 10:08:31 435.000
UNISAT 6 18 Dec 10:05:43 10:09:15 25° 268° (W) 10:12:48 437.425
AO-7 18 Dec 10:09:56 10:14:39 17° 9° (N) 10:19:23 .
Max Valier Satellite 18 Dec 10:15:15 10:19:00 67° 103° (ESE) 10:22:44 145.860
POLYITAN 1 18 Dec 10:18:26 10:22:12 34° 63° (ENE) 10:26:00 437.675
AIST 2D 18 Dec 10:26:25 10:29:57 90° 86° (E) 10:33:32 435.315
Oscar 19 18 Dec 10:28:21 10:30:59 14° 43° (NE) 10:33:37 437.125/150
AAUSAT CUBESAT 2 18 Dec 10:30:52 10:32:36 12° 310° (NW) 10:34:20 437.432
EO-88 18 Dec 10:34:03 10:37:45 75° 104° (ESE) 10:41:26 145.990 - 145.960
ESTCUBE 1 18 Dec 10:36:22 10:38:59 15° 85° (E) 10:41:37 437.505/2401.250
UWE-3 18 Dec 10:39:21 10:40:02 10° 313° (NW) 10:40:42 435.000/436.395/437.385
NO-84 18 Dec 10:39:23 10:42:44 54° 199° (SSW) 10:46:23 435.350 FM
HO-68 18 Dec 10:39:50 10:44:46 20° 324° (NW) 10:49:41 435.675
FO-29 18 Dec 10:42:19 10:43:16 10° 290° (WNW) 10:44:12 435.910
DUCHIFAT 1 18 Dec 10:42:56 10:46:52 43° 66° (ENE) 10:50:51 145.980
QB50P2 18 Dec 10:44:03 10:48:11 60° 69° (ENE) 10:52:21 145.880/145.840
YUBILEINY 18 Dec 10:51:42 10:57:34 19° 36° (NE) 11:03:25 435.215
LO-87 18 Dec 10:52:28 10:55:11 20° 92° (E) 10:57:54 145.935 - 145.965
DELFI C3 18 Dec 10:54:10 10:57:54 40° 294° (WNW) 11:01:36 145.870
ZACube-1 18 Dec 10:54:36 10:56:18 12° 311° (NW) 10:58:03 437.345
AO-91 18 Dec 10:57:56 11:00:09 14° 54° (NE) 11:02:16 145.960
ISS 18 Dec 11:05:36 11:07:32 15° 148° (SSE) 11:09:28 437.550
Oscar 11 18 Dec 11:06:55 11:09:13 14° 309° (NW) 11:11:30 .
BUGSAT 1 18 Dec 11:08:44 11:11:59 24° 59° (ENE) 11:15:15 437.445
PRISM 18 Dec 11:08:53 11:11:47 18° 270° (W) 11:14:42 437.425
NANOSAT C BR1 18 Dec 11:11:25 11:15:36 85° 74° (ENE) 11:19:48 145.865
O/OREOS (USA 219) 18 Dec 11:14:56 11:17:43 16° 335° (NNW) 11:20:29 437.305
EO-79 18 Dec 11:29:33 11:33:42 61° 258° (WSW) 11:37:53 145.935-145.965
Gurwin Techsat 1B 18 Dec 11:38:54 11:43:27 30° 56° (NE) 11:48:02 435.225
nSIGHT-1 18 Dec 11:44:28 11:47:10 24° 159° (SSE) 11:49:50 .
Max Valier Satellite 18 Dec 11:49:52 11:52:25 18° 302° (WNW) 11:55:00 145.860
VELOX 1 18 Dec 11:52:47 11:54:59 13° 85° (E) 11:57:09 145.980
POLYITAN 1 18 Dec 11:54:04 11:57:58 37° 263° (W) 12:01:53 437.675
AO-7 18 Dec 11:58:11 12:04:52 28° 36° (NE) 12:11:35 .
SPROUT 18 Dec 12:01:59 12:05:27 23° 92° (E) 12:08:53 437.525
AIST 2D 18 Dec 12:02:37 12:03:42 11° 275° (W) 12:04:47 435.315
Oscar 19 18 Dec 12:04:17 12:09:16 52° 65° (ENE) 12:14:18 437.125/150
EO-88 18 Dec 12:08:37 12:10:57 16° 303° (WNW) 12:13:16 145.990 - 145.960
ESTCUBE 1 18 Dec 12:11:56 12:16:31 85° 105° (ESE) 12:21:04 437.505/2401.250
NO-84 18 Dec 12:16:53 12:19:33 20° 217° (SW) 12:22:21 435.350 FM
DUCHIFAT 1 18 Dec 12:19:05 12:22:41 28° 266° (W) 12:26:20 145.980
QB50P2 18 Dec 12:21:06 12:24:20 21° 269° (W) 12:27:35 145.880/145.840
LO-87 18 Dec 12:25:24 12:28:49 45° 291° (WNW) 12:32:13 145.935 - 145.965
HO-68 18 Dec 12:28:27 12:29:57 11° 350° (N) 12:31:26 435.675
AO-91 18 Dec 12:31:35 12:36:06 73° 72° (ENE) 12:40:09 145.960
ISS 18 Dec 12:40:22 12:43:23 33° 167° (SSE) 12:46:24 437.550
BUGSAT 1 18 Dec 12:43:12 12:47:08 51° 259° (W) 12:51:04 437.445
YUBILEINY 18 Dec 12:48:31 12:57:07 50° 65° (ENE) 13:05:34 435.215
NANOSAT C BR1 18 Dec 12:49:28 12:51:54 15° 273° (W) 12:54:21 145.865
O/OREOS (USA 219) 18 Dec 12:58:10 12:59:07 11° 1° (N) 13:00:04 437.305
M-CUBED/EXP-1 PRIME 18 Dec 13:15:43 13:19:43 31° 52° (NE) 13:23:49 437.505
Gurwin Techsat 1B 18 Dec 13:17:48 13:23:06 65° 257° (WSW) 13:28:26 435.225
nSIGHT-1 18 Dec 13:19:52 13:22:54 38° 179° (S) 13:25:57 .
ITAMSAT 1 18 Dec 13:26:09 13:30:23 26° 54° (NE) 13:34:37 435.822/435.867
VELOX 1 18 Dec 13:27:43 13:32:11 80° 105° (ESE) 13:36:35 145.980
SPROUT 18 Dec 13:37:28 13:41:38 54° 292° (WNW) 13:45:47 437.525
RS-15 18 Dec 13:37:55 13:48:44 39° 109° (ESE) 13:59:24 29.354- 29.394
Oscar 19 18 Dec 13:44:11 13:48:49 33° 265° (W) 13:53:30 437.125/150
UKube-1 18 Dec 13:46:37 13:50:07 23° 92° (E) 13:53:35 .
AO-7 18 Dec 13:48:13 13:56:26 69° 60° (ENE) 14:04:44 .
ESTCUBE 1 18 Dec 13:49:32 13:52:47 20° 306° (NW) 13:56:02 437.505/2401.250
50 SAT 18 Dec 13:49:48 13:52:42 32° 98° (E) 13:55:34 437.505
SO-50 18 Dec 14:04:16 14:06:32 14° 112° (ESE) 14:08:50 436.795
AO-91 18 Dec 14:09:53 14:12:56 18° 269° (W) 14:15:50 145.960
DX 1 18 Dec 14:10:37 14:14:54 54° 101° (ESE) 14:19:09 434.975-435.025
HO-68 18 Dec 14:12:18 14:14:43 12° 17° (NNE) 14:17:07 435.675
ISS 18 Dec 14:16:24 14:19:29 37° 187° (S) 14:22:34 437.550
ITUPSAT 1 18 Dec 14:16:53 14:17:11 10° 81° (E) 14:17:30 437.325
MOZHAYETS 4 18 Dec 14:24:09 14:27:14 17° 87° (E) 14:30:17
DOVE 4 18 Dec 14:32:57 14:36:43 21° 55° (NE) 14:40:23 437.250
O/OREOS (USA 219) 18 Dec 14:37:33 14:40:29 17° 27° (NNE) 14:43:23 437.305
YUBILEINY 18 Dec 14:45:37 14:54:09 56° 270° (W) 15:02:37 435.215
M-CUBED/EXP-1 PRIME 18 Dec 14:49:23 14:53:51 57° 252° (WSW) 14:58:28 437.505
nSIGHT-1 18 Dec 14:55:54 14:58:42 27° 198° (SSW) 15:01:30 .
Gurwin Techsat 1B 18 Dec 15:01:38 15:04:08 13° 278° (W) 15:06:38 435.225
ITAMSAT 1 18 Dec 15:04:12 15:09:25 76° 254° (WSW) 15:14:39 435.822/435.867
VELOX 1 18 Dec 15:04:56 15:08:08 20° 306° (NW) 15:11:20 145.980
SPROUT 18 Dec 15:15:12 15:16:40 12° 312° (NW) 15:18:08 437.525
BEESAT 18 Dec 15:20:21 15:24:41 33° 95° (E) 15:28:59 436.000
50 SAT 18 Dec 15:21:55 15:24:31 23° 297° (WNW) 15:27:05 437.505
UKube-1 18 Dec 15:22:13 15:26:27 56° 292° (WNW) 15:30:40 .
CUTE-I 18 Dec 15:22:30 15:25:49 17° 45° (NE) 15:29:07 437.470
NUDT-PHONESAT 18 Dec 15:41:37 15:42:04 10° 50° (NE) 15:42:31 437.300
SO-50 18 Dec 15:41:44 15:46:10 65° 133° (SE) 15:50:42 436.795
AO-7 18 Dec 15:42:03 15:49:46 41° 263° (W) 15:57:34 .
LilacSat-2 18 Dec 15:44:55 15:47:17 16° 55° (NE) 15:49:39 437.200
DX 1 18 Dec 15:47:12 15:50:52 27° 302° (WNW) 15:54:30 434.975-435.025
RS-15 18 Dec 15:47:41 16:00:05 88° 135° (SE) 16:12:12 29.354- 29.394
ITUPSAT 1 18 Dec 15:51:22 15:56:06 56° 102° (ESE) 16:00:48 437.325
KAITUO 1B 18 Dec 15:51:23 15:53:12 13° 53° (NE) 15:55:01 145.475/437.950
ISS 18 Dec 15:52:59 15:55:26 19° 207° (SSW) 15:57:52 437.550
XW-2D 18 Dec 15:53:14 15:55:47 17° 57° (ENE) 15:58:23 145.860 - 145.880
HO-68 18 Dec 15:54:33 16:00:08 25° 42° (NE) 16:05:43 435.675
CUBESAT XI-V 18 Dec 15:57:43 16:01:58 32° 94° (E) 16:06:11 437.345
MOZHAYETS 4 18 Dec 16:00:21 16:05:00 85° 290° (WNW) 16:09:40
DOVE 4 18 Dec 16:08:42 16:13:54 88° 254° (WSW) 16:18:51 437.250
XW-2B 18 Dec 16:08:44 16:11:43 22° 60° (ENE) 16:14:44 145.730 - 145.750
O/OREOS (USA 219) 18 Dec 16:16:33 16:20:58 50° 50° (NE) 16:25:21 437.305
XW-2F 18 Dec 16:16:51 16:19:58 24° 61° (ENE) 16:23:07 145.980 - 146.000
M-CUBED/EXP-1 PRIME 18 Dec 16:28:12 16:29:11 11° 272° (W) 16:30:11 437.505
XW-2C 18 Dec 16:35:43 16:39:14 37° 66° (ENE) 16:42:49 145.795 - 145.815
SEEDS 18 Dec 16:37:06 16:38:52 12° 49° (NE) 16:40:38 437.485
YUBILEINY 18 Dec 16:44:11 16:48:55 16° 295° (WNW) 16:53:38 435.215
ITAMSAT 1 18 Dec 16:46:44 16:49:47 15° 275° (W) 16:52:50 435.822/435.867
PCSat 18 Dec 16:48:16 16:49:27 11° 101° (E) 16:50:37 145.827
UWE-3 18 Dec 16:55:31 16:56:36 11° 48° (NE) 16:57:41 435.000/436.395/437.385
BEESAT 18 Dec 16:58:03 17:02:37 46° 296° (WNW) 17:07:09 436.000
CUTE-I 18 Dec 16:59:40 17:04:57 62° 67° (ENE) 17:10:15 437.470
UKube-1 18 Dec 16:59:51 17:01:38 12° 313° (NW) 17:03:24 .
CUBEBUG 2 18 Dec 17:02:43 17:05:30 18° 55° (NE) 17:08:19 437.445
CUTE 1.7 + AOD 2 18 Dec 17:06:05 17:09:42 27° 60° (ENE) 17:13:20 437.475
NUDT-PHONESAT 18 Dec 17:11:28 17:15:07 57° 70° (ENE) 17:18:49 437.300
LilacSat-2 18 Dec 17:17:11 17:21:02 85° 254° (WSW) 17:24:57 437.200
KKS-1 18 Dec 17:19:37 17:23:45 37° 97° (E) 17:27:52 437.445
SO-50 18 Dec 17:22:36 17:26:54 41° 335° (NNW) 17:31:16 436.795
KAITUO 1B 18 Dec 17:22:46 17:26:33 78° 73° (ENE) 17:30:22 145.475/437.950
XW-2D 18 Dec 17:25:43 17:29:31 73° 257° (WSW) 17:33:23 145.860 - 145.880
ITUPSAT 1 18 Dec 17:29:35 17:33:42 29° 302° (WNW) 17:37:49 437.325
CUBESAT XI-V 18 Dec 17:34:58 17:39:30 47° 294° (WNW) 17:44:01 437.345
MOZHAYETS 4 18 Dec 17:38:26 17:41:34 18° 307° (NW) 17:44:42
HO-68 18 Dec 17:39:43 17:46:52 72° 65° (ENE) 17:54:03 435.675
AO-73 18 Dec 17:40:55 17:43:06 14° 51° (NE) 17:45:18 145.935
XW-2B 18 Dec 17:41:53 17:45:37 53° 260° (W) 17:49:25 145.730 - 145.750
DOVE 4 18 Dec 17:48:45 17:52:13 18° 274° (W) 17:55:35 437.250
XW-2F 18 Dec 17:50:12 17:53:53 46° 261° (W) 17:57:36 145.980 - 146.000
STARS 18 Dec 17:50:30 17:54:28 32° 96° (E) 17:58:22 437.465
O/OREOS (USA 219) 18 Dec 17:56:15 18:00:13 31° 252° (WSW) 18:04:10 437.305
RS-15 18 Dec 18:01:39 18:13:49 59° 346° (NNW) 18:25:32 29.354- 29.394
SEEDS 18 Dec 18:09:33 18:13:44 59° 70° (ENE) 18:17:57 437.485
XW-2C 18 Dec 18:10:09 18:13:30 29° 266° (W) 18:16:53 145.795 - 145.815
XW-2A 18 Dec 18:13:41 18:16:37 28° 64° (ENE) 18:19:35 145.665 - 145.685
AAUSAT CUBESAT 2 18 Dec 18:15:39 18:19:29 35° 64° (ENE) 18:23:19 437.432
PCSat 18 Dec 18:26:25 18:31:36 49° 122° (ESE) 18:36:51 145.827
UWE-3 18 Dec 18:28:09 18:32:10 53° 69° (ENE) 18:36:15 435.000/436.395/437.385
CUBEBUG 2 18 Dec 18:37:29 18:41:39 81° 254° (WSW) 18:45:50 437.445
BEESAT 18 Dec 18:37:36 18:39:21 12° 317° (NW) 18:41:05 436.000
CUTE-I 18 Dec 18:40:45 18:45:23 29° 267° (W) 18:50:02 437.470
CUTE 1.7 + AOD 2 18 Dec 18:41:10 18:45:20 50° 261° (W) 18:49:33 437.475
ZACube-1 18 Dec 18:43:30 18:47:25 43° 67° (ENE) 18:51:26 437.345
NUDT-PHONESAT 18 Dec 18:46:41 18:49:18 18° 270° (W) 18:51:58 437.300
LilacSat-2 18 Dec 18:54:26 18:55:58 12° 275° (W) 18:57:29 437.200
Oscar 11 18 Dec 18:55:32 18:59:31 37° 64° (ENE) 19:03:33 .
KKS-1 18 Dec 18:56:15 19:00:21 37° 297° (WNW) 19:04:26 437.445
KAITUO 1B 18 Dec 18:58:57 19:01:02 14° 273° (W) 19:03:08 145.475/437.950
XW-2D 18 Dec 19:03:59 19:04:25 10° 276° (W) 19:04:51 145.860 - 145.880
SO-50 18 Dec 19:04:24 19:08:21 28° 359° (N) 19:12:21 436.795
CUBESAT XI-V 18 Dec 19:14:15 19:15:50 12° 315° (NW) 19:17:26 437.345
AO-73 18 Dec 19:14:30 19:18:38 72° 72° (ENE) 19:22:50 145.935
BEESAT 3 18 Dec 19:16:54 19:20:09 24° 121° (ESE) 19:23:24 437.485
STARS 18 Dec 19:26:47 19:30:54 41° 296° (WNW) 19:35:00 437.465
HO-68 18 Dec 19:28:47 19:35:13 34° 267° (W) 19:41:39 435.675
Max Valier Satellite 18 Dec 19:29:07 19:31:08 14° 55° (NE) 19:33:10 145.860
STRAND 1 18 Dec 19:40:34 19:45:33 49° 100° (E) 19:50:29 437.568
XW-2A 18 Dec 19:46:16 19:49:17 30° 264° (W) 19:52:21 145.665 - 145.685
SEEDS 18 Dec 19:46:28 19:49:46 22° 270° (W) 19:53:07 437.485
EO-88 18 Dec 19:46:37 19:48:47 15° 56° (NE) 19:50:57 145.990 - 145.960
FO-29 18 Dec 19:50:24 19:56:28 31° 88° (E) 20:01:54 435.910
AAUSAT CUBESAT 2 18 Dec 19:51:04 19:54:56 35° 264° (W) 19:58:50 437.432
UWE-3 18 Dec 20:05:39 20:08:58 23° 269° (W) 20:12:18 435.000/436.395/437.385
BEESAT 2 18 Dec 20:07:29 20:10:44 23° 120° (ESE) 20:14:00 435.950
PCSat 18 Dec 20:09:48 20:15:06 51° 325° (NW) 20:20:24 145.827
DELFI C3 18 Dec 20:11:24 20:15:13 44° 67° (ENE) 20:19:02 145.870
RS-15 18 Dec 20:16:22 20:28:28 62° 19° (NNE) 20:39:57 29.354- 29.394
CUBEBUG 2 18 Dec 20:17:17 20:19:01 12° 276° (W) 20:20:46 437.445
ZACube-1 18 Dec 20:20:18 20:23:53 28° 267° (W) 20:27:33 437.345
Oscar 11 18 Dec 20:31:44 20:35:43 35° 265° (W) 20:39:44 .
SO-50 18 Dec 20:45:29 20:49:50 39° 24° (NNE) 20:54:14 436.795
AO-73 18 Dec 20:52:36 20:55:23 17° 272° (W) 20:58:13 145.935
BEESAT 3 18 Dec 20:53:21 20:57:22 71° 322° (NW) 21:01:22 437.485
AO-85 18 Dec 20:55:18 20:58:10 19° 116° (ESE) 21:01:11 145.980
Max Valier Satellite 18 Dec 21:00:44 21:04:25 89° 261° (W) 21:08:09 145.860
EO-88 18 Dec 21:18:15 21:21:56 81° 258° (WSW) 21:25:37 145.990 - 145.960
STRAND 1 18 Dec 21:20:01 21:24:38 35° 300° (WNW) 21:29:14 437.568
SPROUT 18 Dec 21:30:58 21:31:04 10° 46° (NE) 21:31:11 437.525
FO-29 18 Dec 21:35:10 21:42:15 72° 293° (WNW) 21:48:27 435.910
LO-87 18 Dec 21:35:11 21:38:12 27° 63° (ENE) 21:41:14 145.935 - 145.965
ESTCUBE 1 18 Dec 21:42:24 21:46:27 33° 61° (ENE) 21:50:32 437.505/2401.250
TIGRISAT 18 Dec 21:43:46 21:47:46 34° 96° (E) 21:51:47 435.000
BEESAT 2 18 Dec 21:44:03 21:48:06 73° 321° (NW) 21:52:11 435.950
DELFI C3 18 Dec 21:46:45 21:50:07 26° 267° (W) 21:53:31 145.870
UNISAT 6 18 Dec 21:48:14 21:52:21 40° 98° (E) 21:56:32 437.425
PCSat 18 Dec 21:55:02 21:59:38 27° 349° (N) 22:04:15 145.827
SO-50 18 Dec 22:25:59 22:30:37 73° 225° (SW) 22:35:19 436.795
RS-15 18 Dec 22:29:44 22:41:45 78° 229° (SW) 22:53:05 29.354- 29.394
BEESAT 3 18 Dec 22:32:01 22:35:28 27° 343° (NNW) 22:38:55 437.485
AO-85 18 Dec 22:33:56 22:37:59 86° 318° (NW) 22:42:23 145.980
Max Valier Satellite 18 Dec 22:37:30 22:38:50 12° 275° (W) 22:40:11 145.860
PRISM 18 Dec 22:40:46 22:44:38 38° 98° (E) 22:48:27 437.425
EO-88 18 Dec 22:55:24 22:56:12 11° 275° (W) 22:57:00 145.990 - 145.960
VELOX 1 18 Dec 22:56:15 23:00:09 31° 61° (ENE) 23:04:04 145.980
SPROUT 18 Dec 23:01:57 23:06:00 45° 66° (ENE) 23:10:04 437.525
STRAND 1 18 Dec 23:02:11 23:02:30 10° 322° (NW) 23:02:47 437.568
EO-79 18 Dec 23:07:33 23:09:47 14° 86° (E) 23:12:00 145.935-145.965
LO-87 18 Dec 23:08:16 23:11:31 34° 263° (W) 23:14:48 145.935 - 145.965
UKube-1 18 Dec 23:15:17 23:16:46 12° 46° (NE) 23:18:15 .
AIST 2D 18 Dec 23:16:47 23:20:09 38° 98° (E) 23:23:29 435.315
ESTCUBE 1 18 Dec 23:18:50 23:23:10 44° 262° (W) 23:27:33 437.505/2401.250
TIGRISAT 18 Dec 23:20:29 23:24:31 39° 295° (WNW) 23:28:37 435.000
FO-29 18 Dec 23:20:48 23:26:11 24° 317° (NW) 23:31:09 435.910
BEESAT 2 18 Dec 23:22:51 23:26:24 28° 343° (NNW) 23:29:57 435.950
UNISAT 6 18 Dec 23:25:07 23:29:03 34° 297° (WNW) 23:33:01 437.425
POLYITAN 1 18 Dec 23:31:04 23:34:23 22° 91° (E) 23:37:41 437.675
DX 1 18 Dec 23:38:16 23:41:40 22° 56° (NE) 23:45:04 434.975-435.025
PCSat 18 Dec 23:39:53 23:44:35 28° 15° (NNE) 23:49:16 145.827
DUCHIFAT 1 18 Dec 23:54:37 23:58:15 27° 94° (E) 00:01:52 145.980
QB50P2 18 Dec 23:56:48 00:00:47 38° 97° (E) 00:04:46 145.880/145.840
SO-50 19 Dec 00:07:29 00:10:25 17° 246° (WSW) 00:13:22 436.795
BEESAT 3 19 Dec 00:10:48 00:14:02 23° 7° (N) 00:17:16 437.485
YUBILEINY 19 Dec 00:11:32 00:13:21 11° 59° (ENE) 00:15:11 435.215
AO-85 19 Dec 00:15:09 00:18:56 32° 343° (NNW) 00:22:59 145.980
PRISM 19 Dec 00:16:11 00:19:51 32° 298° (WNW) 00:23:30 437.425
BUGSAT 1 19 Dec 00:18:06 00:20:14 14° 87° (E) 00:22:24 437.445
50 SAT 19 Dec 00:22:19 00:25:16 36° 67° (ENE) 00:28:14 437.505
NANOSAT C BR1 19 Dec 00:23:29 00:27:39 54° 101° (E) 00:31:47 145.865
VELOX 1 19 Dec 00:32:10 00:36:28 47° 260° (W) 00:40:47 145.980
SPROUT 19 Dec 00:38:25 00:42:04 28° 266° (W) 00:45:45 437.525
EO-79 19 Dec 00:41:57 00:46:12 87° 106° (ESE) 00:50:26 145.935-145.965
RS-15 19 Dec 00:42:52 00:52:24 30° 256° (WSW) 01:01:34 29.354- 29.394
UKube-1 19 Dec 00:47:41 00:51:53 51° 67° (ENE) 00:56:06 .
AIST 2D 19 Dec 00:50:13 00:53:12 25° 297° (WNW) 00:56:09 435.315
BEESAT 19 Dec 00:58:06 01:01:26 19° 51° (NE) 01:04:46 436.000
BEESAT 2 19 Dec 01:01:50 01:05:10 24° 7° (N) 01:08:29 435.950
POLYITAN 1 19 Dec 01:06:20 01:10:30 58° 291° (WNW) 01:14:40 437.675
FO-29 19 Dec 01:07:31 01:08:47 11° 341° (NNW) 01:10:03 435.910
DX 1 19 Dec 01:13:07 01:17:29 68° 257° (WSW) 01:21:52 434.975-435.025
PCSat 19 Dec 01:23:35 01:28:59 59° 39° (NE) 01:34:21 145.827
Gurwin Techsat 1B 19 Dec 01:26:21 01:30:59 29° 93° (E) 01:35:35 435.225
ITUPSAT 1 19 Dec 01:28:34 01:32:40 29° 58° (ENE) 01:36:46 437.325
DUCHIFAT 1 19 Dec 01:30:05 01:34:06 45° 294° (WNW) 01:38:06 145.980
QB50P2 19 Dec 01:32:44 01:36:32 33° 297° (WNW) 01:40:21 145.880/145.840
MOZHAYETS 4 19 Dec 01:32:46 01:36:59 38° 63° (ENE) 01:41:14
CUBESAT XI-V 19 Dec 01:33:08 01:35:58 16° 50° (NE) 01:38:49 437.345
AO-7 19 Dec 01:43:34 01:46:39 12° 75° (ENE) 01:49:43 .
Oscar 19 19 Dec 01:47:01 01:52:08 51° 100° (E) 01:57:11 437.125/150
BEESAT 3 19 Dec 01:48:35 01:52:25 43° 30° (NNE) 01:56:11 437.485
AO-91 19 Dec 01:50:19 01:53:43 48° 101° (E) 01:56:59 145.960
BUGSAT 1 19 Dec 01:52:08 01:56:12 88° 286° (WNW) 02:00:17 437.445
50 SAT 19 Dec 01:54:53 01:57:19 20° 266° (W) 01:59:46 437.505
AO-85 19 Dec 01:56:42 02:00:27 27° 7° (N) 02:04:27 145.980
YUBILEINY 19 Dec 01:59:31 02:07:32 41° 84° (E) 02:15:36 435.215
NANOSAT C BR1 19 Dec 01:59:39 02:03:06 25° 301° (WNW) 02:06:32 145.865
EO-79 19 Dec 02:18:38 02:21:26 17° 306° (NW) 02:24:14 145.935-145.965
UKube-1 19 Dec 02:24:32 02:28:10 26° 267° (W) 02:31:48 .
BEESAT 19 Dec 02:33:50 02:38:36 86° 72° (ENE) 02:43:24 436.000
BEESAT 2 19 Dec 02:39:50 02:43:45 43° 30° (NNE) 02:47:37 435.950
POLYITAN 1 19 Dec 02:43:46 02:45:28 12° 311° (NW) 02:47:11 437.675
KKS-1 19 Dec 02:50:06 02:53:04 18° 52° (NE) 02:56:01 437.445
DX 1 19 Dec 02:53:05 02:54:31 11° 276° (W) 02:55:56 434.975-435.025
ITUPSAT 1 19 Dec 03:05:36 03:10:17 56° 259° (WSW) 03:14:59 437.325
Gurwin Techsat 1B 19 Dec 03:06:03 03:11:18 60° 293° (WNW) 03:16:32 435.225
PCSat 19 Dec 03:07:14 03:12:16 40° 241° (WSW) 03:17:17 145.827
CUBESAT XI-V 19 Dec 03:07:55 03:12:35 71° 70° (ENE) 03:17:19 437.345
ITAMSAT 1 19 Dec 03:09:46 03:13:46 22° 90° (E) 03:17:45 435.822/435.867
MOZHAYETS 4 19 Dec 03:09:54 03:14:10 38° 264° (W) 03:18:28
STARS 19 Dec 03:20:03 03:22:36 15° 50° (NE) 03:25:10 437.465
BEESAT 3 19 Dec 03:26:12 03:30:00 45° 231° (SW) 03:33:44 437.485
Oscar 19 19 Dec 03:26:37 03:31:19 35° 301° (WNW) 03:36:01 437.125/150
AO-91 19 Dec 03:27:25 03:29:57 19° 302° (WNW) 03:32:26 145.960
BUGSAT 1 19 Dec 03:28:33 03:31:01 16° 307° (NW) 03:33:29 437.445
AO-7 19 Dec 03:33:45 03:41:47 47° 100° (E) 03:49:48 .
AO-85 19 Dec 03:37:21 03:41:45 48° 30° (NNE) 03:46:29 145.980
M-CUBED/EXP-1 PRIME 19 Dec 03:54:51 03:59:01 35° 102° (ESE) 04:02:57 437.505
YUBILEINY 19 Dec 03:55:12 04:04:00 66° 289° (WNW) 04:12:51 435.215
DOVE 4 19 Dec 04:01:22 04:03:50 14° 84° (E) 04:06:13 437.250
BEESAT 19 Dec 04:13:51 04:17:03 18° 273° (W) 04:20:14 436.000
BEESAT 2 19 Dec 04:17:38 04:21:33 47° 231° (SW) 04:25:24 435.950
KKS-1 19 Dec 04:24:33 04:29:02 85° 71° (ENE) 04:33:31 437.445
FO-29 19 Dec 04:28:39 04:32:52 16° 33° (NNE) 04:36:57 435.910
